This is the latest recevied weather packets stored in our database for station/object N7NIP. If no packets are shown the sender has not sent any weather packets the latest 10 day(s).
| Time | Temp. | Humidity | Pressure | Rain* | Wind** | Luminosity | Snow |
|---|---|---|---|---|---|---|---|
| 1777789623 | 11.67° C | 83% | 1028.8 hPa | 0 mm | - | 0 W/m² | - |
| 1777789322 | 11.67° C | 81% | 1028.8 hPa | 0 mm | - | 0 W/m² | - |
| 1777789018 | 12.22° C | 80% | 1028.7 hPa | 0 mm | - | 0 W/m² | - |
| 1777788715 | 12.22° C | 79% | 1028.8 hPa | 0 mm | - | 0 W/m² | - |
| 1777788411 | 12.22° C | 79% | 1028.6 hPa | 0 mm | - | 0 W/m² | - |
| 1777788111 | 12.22° C | 78% | 1028.9 hPa | 0 mm | - | 0 W/m² | - |
| 1777787807 | 12.22° C | 77% | 1028.8 hPa | 0 mm | - | 0 W/m² | - |
| 1777787503 | 12.22° C | 77% | 1028.7 hPa | 0 mm | - | 0 W/m² | - |
| 1777787198 | 12.78° C | 76% | 1028.7 hPa | 0 mm | - | 0 W/m² | - |
| 1777786895 | 12.78° C | 76% | 1028.9 hPa | 0 mm | - | 0 W/m² | - |
| 1777786593 | 12.78° C | 75% | 1028.8 hPa | 0 mm | - | 0 W/m² | - |
| 1777786292 | 12.78° C | 75% | 1028.7 hPa | 0 mm | - | 0 W/m² | - |
| 1777785987 | 12.78° C | 74% | 1028.8 hPa | 0 mm | - | 0 W/m² | - |
| 1777785684 | 13.33° C | 73% | 1028.8 hPa | 0 mm | - | 0 W/m² | - |
| 1777785379 | 13.33° C | 72% | 1028.6 hPa | 0 mm | - | 0 W/m² | - |
| 1777785077 | 13.33° C | 73% | 1028.7 hPa | 0 mm | - | 0 W/m² | - |
| 1777784774 | 13.33° C | 72% | 1028.5 hPa | 0 mm | - | 0 W/m² | - |
| 1777784470 | 13.33° C | 72% | 1028.3 hPa | 0 mm | - | 0 W/m² | - |
| 1777784168 | 13.89° C | 69% | 1028.6 hPa | 0 mm | - | 0 W/m² | - |
| 1777783865 | 13.89° C | 71% | 1028.5 hPa | 0 mm | - | 0 W/m² | - |
| 1777783561 | 14.44° C | 69% | 1028.7 hPa | 0 mm | - | 0 W/m² | - |
| 1777783259 | 14.44° C | 67% | 1028.4 hPa | 0 mm | - | 0 W/m² | - |
| 1777782955 | 14.44° C | 68% | 1028.3 hPa | 0 mm | - | 0 W/m² | - |
| 1777782652 | 14.44° C | 66% | 1028.3 hPa | 0 mm | - | 0 W/m² | - |
| 1777782349 | 15° C | 65% | 1028.2 hPa | 0 mm | - | 0 W/m² | - |
* Rain latest hour (hover to see other rain measurements)
** Current wind speed in m/s (hover to see current wind gust speed)